www.pogodaiklimat.ru

Погода и климат >> Архив погоды >> Словакия >> Малацки


ПОГОДА в Малацки

  • Прогноз погоды в Малацки
  • Монитор погоды в Малацки

АРХИВ ПОГОДЫ в Малацки

Время (UTC), дата Ветер
(напр.,м/с)
 
Видим.   Явления Облачность Т
(С)
Тd
(С)
f
(%)
Тe
(С)
Тes
(С)
Комфортность P
(гПа)
Po
(гПа)
Тmin
(С)
Tmax
(С)
R
(мм)
R24
(мм)
S
(см)
22 13.06 В 2 15 км н/о +23.1 +15.7 63 +27 +27 душно 1013.4 989.4
23 13.06 нст 1 12 км н/о +22.0 +16.3 70 +26 +26 душно 1013.8 989.7
00 14.06 нст 1 22 км н/о +23.0 +14.0 57 +26 +26 жарко 1013.6 989.5
01 14.06 нст 1 18 км н/о +20.9 +14.6 67 +25 +25 комфорт 1014.2 989.9
02 14.06 штиль 0 17 км н/о +18.6 +14.9 79 +19 +19 1015.5 991.0
03 14.06 штиль 0 15 км 3/0
[Ci fib]
+16.9 +14.0 83 +17 +17 1016.1 991.5
04 14.06 ЮВ 2 10 км ясно +17.4 +15.9 91 +18 +18 1017.0 992.4
05 14.06 ЮЗ 1 15 км ясно +18.9 +16.9 88 +21 +24 комфорт 1017.3 992.8
06 14.06 В 1 15 км ясно +20.6 +16.6 78 +25 +31 комфорт 1018.0 993.6 +16.7
07 14.06 ЮЗ 2 15 км ясно +22.8 +16.8 69 +28 +36 душно 1018.6 994.4
08 14.06 нст 1 15 км 1/1 1020 м
[Cu hum]
+25.9 +17.6 60 +30 +43 душно 1018.6 994.7
09 14.06 нст 1 15 км 1/1 1110 м
[Cu hum]
+27.7 +18.2 56 +32 +49 очень
душно
1018.5 994.7
10 14.06 СЗ 2 15 км 3/3 1300 м
[Cu hum Ci fib]
+29.7 +17.2 47 +34 +46 очень
душно
1018.3 994.7
11 14.06 В 2 15 км 3/3 1500 м
[Cu hum Ci fib]
+31.3 +12.7 32 +32 +45 жарко 1018.1 994.5
12 14.06 СВ 3 15 км 3/3 1500 м
[Cu hum]
+31.2 +13.1 33 +32 +42 жарко 1017.7 994.2
13 14.06 ЮВ 2 15 км 3/3 1500 м
[Cu hum]
+32.2 +13.0 31 +33 +43 жарко 1017.2 993.8
14 14.06 Ю 3 15 км 1/1 1500 м
[Cu hum]
+32.7 +12.4 29 +33 +41 жарко 1016.9 993.5
15 14.06 ЮВ 3 15 км 3/1 1500 м
[Cu hum Ci fib]
+32.6 +11.8 28 +33 +38 жарко 1016.6 993.2
16 14.06 ЮВ 3 15 км 3/1 1500 м
[Cu hum Ci fib]
+32.1 +12.4 30 +33 +36 жарко 1016.3 992.8
17 14.06 В 2 15 км 1/0
[Ci fib]
+32.1 +15.2 36 +34 +36 душно 1016.1 992.7
18 14.06 ЮВ 2 15 км 1/0
[Ci fib]
+29.8 +16.3 44 +33 +33 душно 1016.3 992.7 +33.9
19 14.06 ЮВ 1 15 км 1/0
[Ci fib]
+26.5 +16.8 55 +30 +30 душно 1016.3 992.4
20 14.06 З 1 15 км 1/0
[Ci fib]
+22.9 +16.2 66 +27 +27 душно 1017.0 992.8
21 14.06 штиль 0 15 км 1/0
[Ci fib]
+23.1 +15.4 62 +27 +27 душно 1016.8 992.7
22 14.06 штиль 0 12 км н/о +24.2 +15.7 59 +27 +27 жарко 1016.0 991.9
23 14.06 ЮВ 4 22 км н/о +25.8 +14.3 49 +28 +28 жарко 1015.6 991.7
00 15.06 нст 2 14 км н/о +24.7 +13.0 48 +27 +27 жарко 1015.7 991.7
01 15.06 нст 1 17 км н/о +22.4 +14.5 61 +26 +26 жарко 1015.3 991.1
02 15.06 ЮВ 3 13 км н/о +22.2 +15.6 66 +26 +26 душно 1015.0 990.9
03 15.06 ЮВ 3 20 км 6/0
[Cs]
+22.4 +15.5 65 +26 +26 жарко 1015.0 990.8
04 15.06 Ю 5 20 км 6/0
[Cs]
+23.0 +15.8 64 +27 +28 душно 1014.6 990.6
05 15.06 Ю 6 20 км 8/0
[Cs]
+24.0 +16.5 63 +27 +28 жарко 1014.2 990.2
06 15.06 Ю 7 20 км 8/0
[Cs]
+25.2 +16.9 60 +29 +30 душно 1013.9 990.0 +21.3
07 15.06 Ю 6 20 км 8/0
[Cs]
+26.0 +18.2 62 +31 +33 очень
душно
1013.8 990.0
08 15.06 ЮВ 7 20 км 8/0
[Cs]
+27.9 +17.2 52 +32 +35 душно 1013.3 989.6
09 15.06 Ю 7 20 км 8/0
[Cs]
+29.0 +17.9 51 +33 +37 очень
душно
1013.7 990.2
10 15.06 Ю 6 20 км 9/0
[As trans Cs]
+28.8 +18.3 53 +34 +38 очень
душно
1013.9 990.3
11 15.06 ЮВ 7 20 км 9/0
[As trans Cs]
+30.8 +16.8 43 +34 +37 очень
душно
1012.6 989.2
12 15.06 ЮВ 6 20 км 9/0
[Cs]
+31.5 +15.9 39 +34 +40 душно 1012.6 989.2
13 15.06 Ю 7 20 км 5/0
[Ac trans Cs]
+32.6 +15.2 35 +35 +38 душно 1012.2 989.0
14 15.06 Ю 6 20 км 6/0
[Ac trans Cs]
+31.4 +15.8 39 +34 +37 душно 1012.5 989.1
15 15.06 ЮВ 5 20 км 4/0
[Ac trans Ci fib]
+32.1 +16.0 38 +35 +38 очень
душно
1011.7 988.4
16 15.06 ЮВ 5 20 км 4/0
[Ac trans Ci fib]
+31.4 +15.8 39 +34 +36 душно 1011.0 987.6
17 15.06 ЮВ 3 20 км 4/0
[Ac trans Ci fib]
+31.0 +15.9 40 +34 +35 душно 1010.5 987.1
18 15.06 Ю 4 20 км 5/0
[Cs]
+29.0 +17.2 49 +33 +33 очень
душно
1010.9 987.4 +33.1
19 15.06 Ю 2 20 км 5/0
[Ac trans Ci fib]
+27.0 +18.1 58 +32 +32 очень
душно
1011.2 987.5
20 15.06 ЮЗ 3 20 км 5/0
[Ac trans Ci fib]
+25.8 +18.2 63 +30 +30 душно 1011.8 988.0
21 15.06 Ю 3 20 км 4/0
[Ci fib]
+24.8 +18.0 66 +29 +29 душно 1012.0 988.2
22 15.06 ЮЗ 1 20 км н/о +23.8 +18.5 72 +28 +28 душно 1012.8 988.9
23 15.06 Ю 3 20 км н/о +24.3 +16.3 61 +28 +28 душно 1012.8 988.9
00 16.06 Ю 3 30 км н/о +23.1 +15.2 61 +27 +27 душно 1012.9 988.9
01 16.06 ЮЗ 3 26 км н/о +21.8 +15.2 66 +25 +25 комфорт 1013.0 988.9
02 16.06 Ю 2 17 км н/о +21.0 +15.8 72 +25 +25 комфорт 1012.8 988.6
03 16.06 Ю 1 20 км 9/0
[Ac As]
+20.4 +16.0 76 +24 +24 комфорт 1013.5 989.2
04 16.06 штиль 0 20 км 9/0
[Ac As]
+20.4 +16.0 76 +23 +23 комфорт 1013.5 989.2
05 16.06 Ю 3 20 км 6/0
[Ac trans Cs]
+19.9 +16.7 82 +23 +24 комфорт 1014.3 990.0
06 16.06 З 2 20 км {дождь} 4/0
[Ac trans Ci fib]
+20.7 +16.1 75 +25 +29 комфорт 1015.4 991.1 +19.5 0.0
07 16.06 СЗ 3 10 км дождь 9/9 450 м
[Sc Ac trans]
+21.3 +16.3 73 +25 +25 комфорт 1016.3 992.0
08 16.06 З 1 10 км слаб. дождь 9/9 960 м
[Cb cap]
+23.2 +16.8 67 +28 +30 душно 1016.5 992.4
09 16.06 СЗ 5 15 км 6/4 1020 м
[Cb cap Ac trans Ci fib]
+25.2 +14.4 51 +28 +32 жарко 1016.7 992.7
10 16.06 СЗ 4 15 км слаб. дождь 8/4 1200 м
[Cb cap Ac As Ci fib]
+23.2 +15.3 61 +27 +32 душно 1017.6 993.5
11 16.06 СЗ 5 15 км 8/8 800 м
[Cb cap]
+24.7 +15.9 58 +28 +30 душно 1017.4 993.4
12 16.06 З 4 15 км 8/5 800 м
[Cu med, cong Cs]
+24.8 +16.5 60 +28 +33 жарко 1017.2 993.2 0.7
13 16.06 СЗ 6 15 км 8/5 960 м
[Sc Cs]
+26.2 +16.2 54 +30 +32 душно 1016.6 992.7
14 16.06 СЗ 4 15 км 8/8 960 м
[Cu Sc]
+25.9 +16.2 55 +29 +31 душно 1016.8 992.9
15 16.06 С 6 15 км 8/8 930 м
[Cu Sc Cs]
+25.4 +16.8 59 +29 +30 душно 1016.4 992.4
16 16.06 СЗ 7 15 км 8/8 960 м
[Cu Sc]
+25.2 +16.1 57 +29 +29 душно 1016.8 992.8
17 16.06 С 5 15 км 9/9 870 м
[Cu Sc]
+24.7 +16.4 60 +28 +28 душно 1017.4 993.4
18 16.06 СЗ 5 15 км 9/5 900 м
[Sc Ac As]
+23.8 +16.8 65 +27 +27 жарко 1017.6 993.5 +26.8 0.7
19 16.06 СЗ 5 15 км 9/5 900 м
[Sc Cs]
+22.6 +17.1 71 +27 +27 душно 1017.7 993.5
20 16.06 СЗ 5 15 км 9/3 870 м
[Sc Cs]
+21.4 +15.0 67 +25 +25 комфорт 1019.3 995.0
21 16.06 СЗ 5 15 км 8/8 900 м
[Sc]
+20.7 +14.4 67 +23 +23 комфорт 1019.6 995.2
22 16.06 С 3 30 км н/о +19.6 +13.8 69 +22 +22 комфорт 1019.5 995.0
23 16.06 нст 1 18 км н/о +18.8 +13.7 72 +21 +21 комфорт 1020.1 995.5
00 17.06 нст 2 28 км н/о +18.4 +13.7 74 +19 +19 1020.0 995.4
01 17.06 нст 1 15 км н/о +17.3 +13.8 80 +18 +18 1020.0 995.3
02 17.06 С 1 17 км н/о +16.2 +13.5 84 +17 +17 1019.8 995.0
03 17.06 В 1 15 км 4/4 1500 м
[Sc]
+15.0 +13.0 88 +15 +15 1020.4 995.5
04 17.06 ЮВ 1 15 км 8/6 1500 м
[Sc Cs]
+14.9 +13.6 92 +15 +16 1020.6 995.6
05 17.06 Ю 1 15 км 8/5 300 м
[Sc Ci fib]
+17.0 +15.4 90 +18 +19 1020.6 995.9
06 17.06 С 2 15 км 8/8 1200 м
[Sc]
+18.8 +14.9 78 +20 +21 1020.5 995.9 +14.7
07 17.06 С 3 20 км 4/0
[Ci fib]
+21.4 +13.8 62 +24 +31 комфорт 1020.2 995.9
08 17.06 С 3 20 км 9/4 840 м
[Sc Ac trans]
+22.2 +13.8 59 +25 +28 комфорт 1020.3 996.0
09 17.06 С 4 20 км 5/5 1200 м
[Cu Sc Ac lent Ci fib]
+24.2 +14.6 55 +27 +32 жарко 1020.0 995.9
10 17.06 С 4 20 км 5/5 1140 м
[Cu Sc Ci fib]
+25.6 +13.2 46 +28 +34 жарко 1019.6 995.6
11 17.06 СВ 4 20 км 6/6 1260 м
[Cu Sc Ac lent Ci sp]
+26.4 +12.8 43 +28 +33 жарко 1019.6 995.6
12 17.06 С 5 20 км 8/4 1320 м
[Cu hum Ac lent Ci sp]
+26.2 +12.3 42 +28 +31 жарко 1019.2 995.2
13 17.06 СВ 4 20 км 8/5 1440 м
[Cu Sc Ci sp]
+27.2 +12.1 39 +28 +33 жарко 1018.8 995.0
14 17.06 СВ 3 20 км 8/5 1500 м
[Cu Sc Ac lent Ci sp]
+26.4 +12.5 42 +28 +31 жарко 1018.6 994.7
15 17.06 СВ 3 20 км 8/5 1500 м
[Cu Sc Ac lent Ci sp]
+26.7 +13.1 43 +28 +31 жарко 1018.2 994.3
16 17.06 С 4 20 км 8/4 1410 м
[Cu Sc Cs]
+25.9 +13.1 45 +28 +29 жарко 1018.0 994.0
17 17.06 С 4 20 км 8/0
[Cs]
+24.5 +12.8 48 +26 +27 жарко 1018.1 994.0
18 17.06 С 3 20 км 8/0
[Cs]
+23.3 +12.6 51 +26 +26 жарко 1018.3 994.1 +28.1
19 17.06 СВ 1 20 км 8/0
[Cs]
+21.5 +13.4 60 +24 +24 комфорт 1018.7 994.4
20 17.06 СВ 1 20 км 8/0
[Cs]
+19.1 +13.5 70 +21 +21 комфорт 1019.2 994.7
21 17.06 С 1 20 км 8/0
[Cs]
+17.9 +13.4 75 +19 +19 1019.3 994.7
22 17.06 нст 1 14 км н/о +16.7 +13.8 83 +18 +18 1019.1 994.3
23 17.06 СВ 2 14 км н/о +16.1 +13.6 85 +16 +16 1018.8 994.1
00 18.06 нст 1 14 км н/о +15.4 +13.1 86 +16 +16 1018.9 994.1
01 18.06 нст 1 10 км н/о +13.4 +11.1 86 +14 +14 1018.8 993.8
02 18.06 штиль 0 16 км н/о +13.0 +11.4 90 +12 +12 1018.4 993.4
03 18.06 СВ 1 20 км 5/0
[Ci fib]
+12.6 +11.2 91 +13 +13 1018.9 993.8
04 18.06 СЗ 1 20 км 6/0
[Ci fib]
+13.1 +11.5 90 +13 +14 1019.0 993.9
05 18.06 штиль 0 20 км 5/0
[Ci fib]
+16.6 +14.4 87 +16 +19 1018.7 994.0
06 18.06 С 1 20 км 8/0
[Cc]
+21.5 +12.4 56 +24 +29 комфорт 1018.5 994.1 +12.3
07 18.06 нст 1 20 км 5/0
[Ci fib]
+23.6 +10.7 44 +25 +34 комфорт 1018.3 994.1
08 18.06 Ю 3 20 км 5/1 1470 м
[Cu hum Ci fib]
+24.9 +9.2 37 +26 +34 жарко 1018.1 994.0
09 18.06 нст 2 20 км 5/1 1500 м
[Cu hum Ci fib]
+25.6 +8.6 34 +26 +39 жарко 1018.0 994.0
10 18.06 нст 2 20 км 5/1 1500 м
[Cu hum Ci fib]
+27.2 +9.1 32 +27 +42 жарко 1017.6 993.7
11 18.06 Ю 3 20 км 8/4 1500 м
[Cu hum Ci]
+28.1 +10.4 33 +29 +36 жарко 1017.0 993.2
12 18.06 Ю 4 20 км 8/5 1500 м
[Cu hum Cs]
+28.2 +9.0 30 +28 +33 жарко 1016.8 993.0
13 18.06 ЮВ 4 20 км 8/4 1500 м
[Cu hum Cs]
+28.2 +9.0 30 +28 +33 жарко 1016.2 992.4
14 18.06 Ю 3 20 км 8/3 1500 м
[Cu hum Cs]
+28.4 +9.2 30 +28 +34 жарко 1015.8 992.0
15 18.06 СВ 2 20 км 8/1 1500 м
[Cu hum Cs]
+29.3 +10.5 31 +29 +35 жарко 1015.0 991.4
16 18.06 В 3 20 км 6/1 1500 м
[Cu hum Ci fib]
+28.1 +9.4 31 +28 +31 жарко 1014.8 991.1
17 18.06 В 2 20 км 6/1 1500 м
[Cu hum Ci fib]
+28.2 +10.4 33 +29 +30 жарко 1014.7 990.9
18 18.06 ЮВ 1 20 км 5/1 1500 м
[Cu hum Ci fib]
+27.4 +11.5 37 +28 +29 жарко 1014.7 991.0 +29.9
19 18.06 ЮВ 1 20 км 5/0
[Ci fib]
+23.9 +13.8 53 +26 +26 жарко 1015.1 991.1
20 18.06 штиль 0 20 км 5/0
[Ci fib]
+21.2 +14.4 65 +24 +24 комфорт 1015.8 991.5
21 18.06 штиль 0 20 км 4/0
[Ci fib]
+19.6 +14.4 72 +21 +21 комфорт 1015.8 991.4
22 18.06 штиль 0 20 км н/о +18.9 +14.6 76 +20 +20 1015.3 990.9
23 18.06 нст 1 16 км н/о +18.5 +15.4 82 +20 +20 1015.1 990.6
00 19.06 штиль 0 12 км н/о +19.1 +16.2 83 +20 +20 1015.0 990.6
01 19.06 штиль 0 12 км н/о +17.8 +15.2 85 +18 +18 1014.7 990.2
02 19.06 нст 1 9000 м н/о +17.1 +14.7 86 +18 +18 1014.5 989.9
03 19.06 С 1 10 км местами туман поземный 4/1 1320 м
[Sc Ci fib]
+16.6 +14.6 88 +17 +17 1014.5 989.9
04 19.06 В 1 15 км 4/1 1350 м
[Cu Sc Ci fib]
+17.9 +16.1 89 +19 +20 1014.5 990.0
05 19.06 В 5 20 км 6/4 1320 м
[Cu Sc Ci fib]
+20.9 +17.1 79 +25 +25 комфорт 1014.1 989.9
06 19.06 ЮВ 5 20 км 6/4 1410 м
[Sc Ci fib]
+22.7 +16.3 67 +27 +29 душно 1014.1 990.0 +16.1
07 19.06 В 5 20 км 8/4 1470 м
[Sc Ci fib]
+24.5 +16.0 59 +28 +30 душно 1014.0 990.0
08 19.06 В 3 20 км 8/4 1500 м
[Sc Ac trans Ci fib]
+24.2 +15.7 59 +27 +31 жарко 1014.0 990.0
09 19.06 ЮВ 4 20 км 6/3 1110 м
[Cu hum Ac trans Ci fib]
+26.9 +17.7 57 +31 +37 душно 1013.5 989.7
10 19.06 ЮВ 5 20 км 8/4 1260 м
[Cu med, cong Cs]
+28.7 +17.6 51 +33 +38 очень
душно
1013.1 989.5
11 19.06 ЮВ 4 20 км гроза без осадков 8/5 1020 м
[Cb cap Cs]
+29.1 +16.3 46 +32 +38 душно 1012.5 988.9
12 19.06 ЮВ 6 20 км в посл. час гроза 8/6 1140 м
[Cu med, cong Cs]
+29.5 +15.6 43 +32 +35 душно 1011.9 988.4
13 19.06 ЮВ 6 15 км гроза без осадков 9/6 1350 м
[Cb cap Ac trans]
+30.1 +14.3 38 +32 +33 жарко 1011.5 988.0
14 19.06 ЮВ 5 15 км гроза без осадков 9/5 1300 м
[Cb cap Ac trans]
+26.6 +16.8 55 +30 +32 душно 1011.7 988.0
15 19.06 ЮВ 5 20 км в посл. час гроза 9/0 2000 м
[Ac trans Cs]
+27.0 +15.1 48 +30 +33 душно 1010.8 987.1
16 19.06 Ю 4 20 км 9/0
[Ac trans Cs]
+25.5 +16.4 57 +29 +31 душно 1010.9 987.1
17 19.06 Ю 3 20 км 8/0
[Ac trans Cs]
+24.9 +16.1 58 +28 +29 жарко 1011.4 987.5
18 19.06 Ю 3 20 км {гроза} 4/0
[Cs]
+23.4 +16.0 63 +28 +28 душно 1011.2 987.2 +31.0 0.1
19 19.06 З 2 10 км 5/0 2000 м
[Ac As Cs]
+22.2 +17.1 73 +27 +27 душно 1011.6 987.5
20 19.06 ЮЗ 2 10 км 5/0 2000 м
[Ac trans Cs]
+22.8 +17.9 74 +28 +28 душно 1012.0 988.0
21 19.06 З 1 10 км 8/8 660 м
[Sc]
+22.5 +17.4 73 +27 +27 душно 1012.9 988.8
22 19.06 В 4 10 км н/о +20.5 +17.1 81 +24 +24 комфорт 1011.9 987.7
01 20.06 нст 1 13 км н/о +19.9 +16.7 82 +24 +24 комфорт 1011.6 987.4
02 20.06 Ю 5 22 км н/о +19.8 +17.0 84 +22 +22 комфорт 1011.7 987.4
03 20.06 СВ 1 10 км {ливн. осадки} 8/8 210 м
[Sc]
+18.4 +16.4 88 +20 +20 1012.2 987.8
04 20.06 В 2 10 км 8/1 210 м
[St Ac trans Cs]
+18.6 +16.8 89 +20 +20 1012.4 988.0
05 20.06 ЮВ 3 15 км 8/1 300 м
[St Ac trans Cs]
+20.8 +17.6 82 +25 +26 комфорт 1012.2 988.0
06 20.06 В 3 15 км 8/1 300 м
[St Ac trans Cs]
+22.0 +17.8 77 +27 +29 душно 1012.5 988.4 +17.9 0.6
07 20.06 В 3 15 км 8/5 300 м
[Sc Ac As Ci fib]
+22.8 +17.1 70 +28 +30 душно 1013.0 989.0
08 20.06 Ю 2 15 км 9/9 300 м
[Sc]
+22.9 +17.4 71 +28 +29 душно 1013.4 989.4
09 20.06 ЮЗ 2 15 км 10/10 400 м
[Sc]
+22.1 +17.9 77 +27 +27 душно 1013.9 989.8
10 20.06 ЮВ 1 15 км 8/8 570 м
[Cu Sc]
+25.1 +17.8 64 +29 +33 душно 1013.6 989.7
11 20.06 Ю 2 15 км 6/4 840 м
[Cu hum Ci fib]
+26.2 +15.6 52 +29 +39 жарко 1012.8 989.0
12 20.06 ЮВ 2 15 км 8/5 1080 м
[Cu med, cong Ci fib]
+27.8 +13.8 42 +30 +37 жарко 1012.2 988.6
13 20.06 Ю 2 15 км 8/6 1230 м
[Cu med, cong Ci fib]
+28.5 +14.4 42 +31 +36 душно 1011.6 988.0
14 20.06 нст 2 15 км 6/5 1350 м
[Cu med, cong Ci fib]
+29.8 +14.8 40 +32 +37 душно 1010.7 987.2
15 20.06 Ю 2 15 км 6/5 1440 м
[Cu med, cong Ci fib]
+28.5 +14.0 41 +30 +34 жарко 1011.0 987.4
16 20.06 нст 2 15 км 6/5 1440 м
[Cu med, cong Ci fib]
+29.9 +14.9 40 +32 +34 жарко 1010.7 987.2
17 20.06 С 5 15 км гроза без осадков 6/3 1440 м
[Cb cap Ac As Ci fib]
+24.6 +12.6 47 +26 +27 жарко 1012.2 988.3
18 20.06 СЗ 1 15 км в посл. час гроза 6/1 1440 м
[Cu med, cong Ac As Ci fib]
+23.3 +13.2 53 +26 +27 жарко 1012.6 988.6 +30.5
19 20.06 штиль 0 15 км 6/0
[Ac lent Ci ing]
+21.9 +14.1 61 +25 +25 комфорт 1012.6 988.4
20 20.06 С 1 20 км 5/0
[Ac lent Ci sp]
+19.8 +13.3 66 +23 +23 комфорт 1013.7 989.4
21 20.06 ЮВ 1 15 км зарница 9/0
[Ac und Ci sp]
+19.0 +14.5 75 +21 +21 комфорт 1014.7 990.3

 

Местоположение метеостанции Малацки (Словакия): широта 48.40 долгота 17.15 высота над уровнем моря 205 м.

В архиве по умолчанию представлена погода в Малацки за последнюю неделю. Архивные данные за месяц целиком и за предыдущие месяцы, начиная с января 2011 года, Вы можете получить, выбрав интересующий диапазон дат из раскрывающегося списка и нажав кнопку "Ввод!".


*Определитесь, кто Вы:
робот инопланетянин человек

Внимание! Время в таблицах - всемирное. Для получения местного времени необходимо прибавить поправку, которая равна 1 ч.

Смотрите также архив погоды в соседних городах и на ближайших метеорологических станциях:

Погода в Малом Яровнику (Словакия) (17 км)
Погода в Братиславе (Словакия) (23 км)
Погода в Зверндорф-Маршег (Австрия) (25 км)
Погода в Братислава-Колибе (Словакия) (26 км)
Погода в Ясловске Богунице (Словакия) (39 км)
Погода в Мистельбахе (Австрия) (45 км)
Погода в Грос-Энцерсдорфе (Австрия) (48 км)
Погода в Пойсдорфе (Австрия) (49 км)
Погода в Вене аэропорт (Австрия) (53 км)
Погода в Нойзидль-ам-Зе (Австрия) (55 км)

Пояснения к столбцам:

Ветер - указаны скорость ветра в м/с - средняя за 10 мин, порывы в срок и между сроками (в фигурных скобках) и направление, откуда дует ветер: С - северный, СВ - северо-восточный, В - восточный, ЮВ - юго-восточный, Ю - южный, ЮЗ - юго-западный, З - западный, СЗ - северо-западный.
Видимость - горизонтальная дальность видимости в метрах или километрах. При видимости от 1 до 10 км при отсутствии осадков обычно наблюдается дымка, при ухудшении видимости до 1 км и менее - туман. В сухую погоду видимость может ухудшаться дымом, пылью или мглою.
Явления - указаны атмосферные явления, наблюдавшиеся в срок или в последний час перед сроком; фигурными скобками обозначены явления, наблюдавшиеся между сроками (за 1-3 часа до срока); квадратными скобками обозначены град или гололедные отложения с указанием их диаметра в мм.
Облачность - указаны через наклонную черту общая и нижняя облачность в баллах и высота нижней границы облаков в метрах; квадратными скобками обозначены формы облаков: Ci - перистые, Cs - перисто-слоистые, Cc - перисто-кучевые, Ac - высококучевые, As - высокослоистые, Sc - слоисто-кучевые, Ns - слоисто-дождевые, Cu - кучевые, Cb - кучево-дождевые. Подробнее классификацию облаков см. в Атласе облаков (PDF).
T - Температура воздуха - температура, измеренная на высоте 2 м над землей.
Td - Температура точки росы - температура, при понижении до которой содержащийся в воздухе водяной пар достигнет насыщения.
f - Относительная влажность воздуха - влажноcть воздуха, измеренная на высоте 2 м над землей.
Te - Эффективная температура - температура, которую ощущает одетый по сезону человек в тени. Характеристика душности погоды. При расчете учитывается влияние влажности воздуха и скорости ветра на теплоощущения человека.
Tes - Эффективная температура на солнце - температура, которую ощущает человек, с поправкой на солнечный нагрев. Характеристика знойности погоды. Зависит от высоты солнца над горизонтом, облачности и скорости ветра. Ночью, в пасмурную погоду, а также при ветре 12 м/с и более поправка равна нулю.
P - Атмосферное давление - приведенное к уровню моря атмосферное давление.
Po - Атмосферное давление - измеренное на уровне метеостанции атмосферное давление.
Tmin - Минимальная температура - минимум температуры воздуха на высоте 2 м над землей.
Tmax - Максимальная температура - максимум температуры воздуха на высоте 2 м над землей.
R - Количество осадков - Количество выпавших осадков за период времени, мм. При наведении курсора мыши на число - период времени, за который выпало указанное количество осадков.
R24 - Количество осадков - Количество выпавших осадков за 24 часа, мм.
S - Снежный покров - Высота снежного покрова, см. При наведении курсора мыши на число - состояние снежного покрова и степень покрытия местности в баллах.